User: anonymous   Login
Location: Unspecified
(0.0000°N, 0.0000°E)
Time: 05:07:32
(UTC+00:00)
Language:

USA 184 - Orbit

View from above orbital plane
View from above orbital plane
View from above satellite
View from above satellite

Ground track
Ground track

The orbit data is extracted from the following two-line orbital elements,

1 29249U 06027A   17044.44961189 0.00000000  00000-0  00000-0 0    02
2 29249  62.8607 294.6052 7052601 268.8820  16.9059  2.00615000    04
Epoch (UTC): 13 February 2017 10:47:26
Eccentricity: 0.7052601
inclination: 62.8607°
perigee height: 1449 km
apogee height: 38906 km
right ascension of ascending node: 294.6052°
argument of perigee: 268.8820°
revolutions per day: 2.00615000
mean anomaly at epoch: 16.9059°
orbit number at epoch: 0

The dashed part of the orbit path shows where the satellite is in the earth's shadow,  

DLR